Regional Weather Roundup
Issued by NWS

Home | Current Version | Previous Version | Graphics & Text | Print | Product List | Glossary On
Versions: 1 2 3 4 5 6 7 8 9 10 11 12 13 14 15 16 17 18 19 20 21 22 23 24 25 26 27 28 29 30 31 32 33 34 35 36 37 38 39 40 41 42 43 44 45 46 47 48 49 50
000
ASUS43 KLOT 251904
RWRIL

ILLINOIS REGIONAL WEATHER ROUNDUP
NATIONAL WEATHER SERVICE CHICAGO/ROMEOVILLE IL
200 PM CDT MON JUL 25 2016

NOTE: "FAIR" INDICATES FEW OR NO CLOUDS BELOW 12,000 FEET WITH NO
SIGNIFICANT WEATHER AND/OR OBSTRUCTIONS TO VISIBILITY.

* THESE STATIONS ARE NOT UNDER NWS QUALITY CONTROL. THEY ALSO MAY NOT
  REPORT WEATHER SUCH AS PRECIPITATION OR FOG.

ILZ001-002-007-009-015-016-024-252000-
NORTHWEST ILLINOIS

CITY           SKY/WX    TMP DP  RH WIND       PRES   REMARKS
MOLINE         MOSUNNY   87  64  46 MISG      30.03F HX  88
STERLING*      PTSUNNY   84  67  56 N6        30.03F HX  86
SAVANNA*       SUNNY     84  67  56 NW8G21    30.02F HX  87
$$

ILZ003-004-008-010-011-017-018-252000-
NORTH CENTRAL ILLINOIS

CITY           SKY/WX    TMP DP  RH WIND       PRES   REMARKS
ROCKFORD       MOSUNNY   84  62  47 N8        30.03S HX  85
FREEPORT*      SUNNY     83  67  58 N12       30.04F HX  85
ROCHELLE*      SUNNY     82  65  56 NW3       30.04S HX  84
DE KALB*       MOSUNNY   82  65  56 W5        30.04S HX  84
$$

ILZ005-006-012>014-019>023-252000-
NORTHEAST ILLINOIS

CITY           SKY/WX    TMP DP  RH WIND       PRES   REMARKS
CHICAGO-OHARE  MOSUNNY   86  60  41 W8        30.00S HX  86
CHICAGO-MIDWAY MOSUNNY   85  64  49 SE12      30.00F HX  86
AURORA         MOSUNNY   86  68  54 VRB5      30.02F HX  89
LANSING*       SUNNY     83  63  51 NE6       30.01F HX  84
WAUKEGAN       MOSUNNY   85  66  53 SE10      30.00R HX  87
DUPAGE AIRPORT SUNNY     86  62  44 NW6       30.01F HX  86
KANKAKEE*      CLOUDY    86  69  57 NW6       30.02F HX  90
WHEELING       MOSUNNY   87  59  38 N10       30.01S HX  86
MORRIS*        CLOUDY    83  69  62 CALM      30.01F HX  86
NORTHERLY ISL    N/A     80  67  64 SE7         N/A  HX  82
$$

LMZ740>746-252000-
SOUTHERN LAKE MICHIGAN

STATION/POSITION SKY/WX   TEMP    WIND        PRES    VSBY  WAVE
                          AIR SEA DIR/SP/G                  HT/PER
                          (F)     (DEG/KT/KT) (MB)    (MI)  (FT/S)
SOUTHERN BUOY              73 73  280/  2/  4 1015.4          1/ 4
WILMETTE HARBOR            75 67  140/  6/  6   N/A           1
HARRISON CRIB              76      90/  7/  8   N/A
BURNHAM HARBOR             79     130/  4/  6   N/A
CALUMET HARBOR             77      70/  5/  6 1016.2R
BURNS HARBOR               75      20/  4/  6 1017.3R
MICHIGAN CITY              78     310/  2/  3   N/A
MICHIGAN CITY 6N           75 75  310/  2/  4   N/A           1/ 3
ST. JOSEPH                 74 75  320/  6/  8 1016.3R         1/ 4
$$

ILZ025>027-034>036-040-047-049-050-058-095>099-252000-
WEST-CENTRAL ILLINOIS

CITY           SKY/WX    TMP DP  RH WIND       PRES   REMARKS
QUINCY         CLOUDY    84  70  62 VRB7      30.04F HX  88
GALESBURG*     PTSUNNY   83  67  58 NW5       30.05F HX  86
MACOMB*        PTSUNNY   83  69  64 NW5       30.06F HX  86
JACKSONVILLE*  CLOUDY    80  73  79 NW3       30.02F HX  84
PITTSFIELD*    PTSUNNY   82  74  76 N7        30.04F HX  88
$$

ILZ028>032-037-038-041>044-048-051>054-059>061-252000-
CENTRAL ILLINOIS

CITY           SKY/WX    TMP DP  RH WIND       PRES   REMARKS
PONTIAC        CLOUDY    83  72  69 CALM      30.03F HX  88
BLOOMINGTON    CLOUDY    81  72  74 CALM      30.04F HX  85
DECATUR        CLOUDY    85  71  63 VRB5      30.02F HX  90
PEORIA         CLOUDY    87  70  56 NE3       30.02F HX  92
LACON*         CLOUDY    82  68  62 SE5       30.02F HX  85
LINCOLN*       CLOUDY    83  75  77 NW5       30.02F HX  91
SPRINGFIELD    CLOUDY    84  73  69 W5        30.03F HX  90
TAYLORVILLE    MOSUNNY   82  72  72 MISG      30.02F HX  87
$$

ILZ033-039-045-046-055>057-062-063-252000-
EAST-CENTRAL ILLINOIS

CITY           SKY/WX    TMP DP  RH WIND       PRES   REMARKS
CHAMPAIGN      PTSUNNY   83  74  74 W7        30.02F HX  89
MATTOON        CLOUDY    84  73  69 N8        30.00F HX  90
PARIS*         CLOUDY    85  77  75 CALM      30.02F HX  95
$$

ILZ079-100>102-252000-
SOUTHWEST ILLINOIS

CITY           SKY/WX    TMP DP  RH WIND       PRES   REMARKS
ALTON          CLOUDY    79  75  89 SE7       30.02F HX  82
BELLEVILLE     CLOUDY    80  78  95 N6        30.00F HX  88
CAHOKIA*       CLOUDY    83  73  72 N6        30.01F HX  89
SPARTA*        CLOUDY    84  77  78 NW9       30.01F HX  93
$$

ILZ064>066-069>071-074>076-080>082-084>086-088>090-092>094-252000-
SOUTH-CENTRAL ILLINOIS

CITY           SKY/WX    TMP DP  RH WIND       PRES   REMARKS
CARBONDALE     PTSUNNY   91  76  61 SW8       29.97F HX 103
CAIRO*         TSTM      78  74  88 S6        30.01R HX  81
EFFINGHAM*     CLOUDY    85  76  74 NW6       30.01F HX  95
MT. VERNON     CLOUDY    77  70  78 CALM      29.99R THUNDER
CENTRALIA*     TSTM      80  79  96 CALM      30.00S HX  89
SALEM*         PTSUNNY   87  76  71 N6        29.99F HX  97
METROPOLIS*    SUNNY     92  78  63 SW7       29.99S THUNDER HX 106
$$

ILZ067-068-072-073-078-083-087-091-252000-
SOUTHEAST ILLINOIS

CITY           SKY/WX    TMP DP  RH WIND       PRES   REMARKS
LAWRENCEVILLE  PTSUNNY   90  75  61 VRB6      29.99F HX 100
FLORA*         PTSUNNY   87  77  71 N6        29.99F HX  98
FAIRFIELD*     PTSUNNY   88  77  69 CALM      29.96F HX  99
HARRISBURG*    MOSUNNY   88  80  77 W3        29.98F HX 103
ROBINSON*      CLOUDY    86  74  66 NE5       30.01F HX  94
CARMI*         CLOUDY    88  80  77 SW7       29.97F HX 103
$$

ABBREVIATIONS USED IN REMARKS
   TC - TEMPERATURE IN CELSIUS
  WCI - WIND CHILL INDEX
   HX - HEAT INDEX
  VSB - VISIBILITY
$$





USA.gov is the U.S. government's official web portal to all federal, state and local government web resources and services.